TimeCST,TemperatureF,Dew PointF,Humidity,Sea Level PressureIn,VisibilityMPH,Wind Direction,Wind SpeedMPH,Gust SpeedMPH,PrecipitationIn,Events,Conditions,WindDirDegrees,DateUTC
12:15 AM,28.4,24.8,86,30.21,7.0,North,11.5,-,N/A,,Overcast,10,2013-12-06 06:15:00
12:35 AM,26.6,24.8,93,30.20,4.0,North,10.4,-,N/A,,Overcast,350,2013-12-06 06:35:00
12:55 AM,26.6,24.8,93,30.23,5.0,NNW,9.2,-,0.01,,Overcast,330,2013-12-06 06:55:00
1:15 AM,26.6,24.8,93,30.27,3.0,NNW,11.5,-,N/A,,Overcast,330,2013-12-06 07:15:00
1:35 AM,26.6,23.0,86,30.23,3.0,North,6.9,-,0.02,,Overcast,350,2013-12-06 07:35:00
1:55 AM,24.8,21.2,86,30.22,5.0,North,13.8,21.9,0.03,,Overcast,10,2013-12-06 07:55:00
2:15 AM,24.8,21.2,86,30.23,6.0,North,12.7,-,N/A,,Overcast,10,2013-12-06 08:15:00
2:35 AM,26.6,23.0,86,30.22,5.0,North,9.2,-,0.01,,Overcast,360,2013-12-06 08:35:00
2:55 AM,26.6,21.2,80,30.22,6.0,North,11.5,-,0.01,,Overcast,360,2013-12-06 08:55:00
3:15 AM,26.6,21.2,80,30.22,9.0,North,15.0,18.4,N/A,,Overcast,10,2013-12-06 09:15:00
3:35 AM,26.6,21.2,80,30.20,7.0,NNE,16.1,21.9,N/A,,Overcast,20,2013-12-06 09:35:00
3:55 AM,24.8,21.2,86,30.19,10.0,North,15.0,20.7,N/A,,Overcast,10,2013-12-06 09:55:00
4:15 AM,24.8,21.2,86,30.19,10.0,North,15.0,19.6,N/A,,Overcast,10,2013-12-06 10:15:00
4:35 AM,24.8,21.2,86,30.21,10.0,North,12.7,18.4,N/A,,Overcast,10,2013-12-06 10:35:00
4:55 AM,24.8,21.2,86,30.23,10.0,North,11.5,16.1,N/A,,Overcast,10,2013-12-06 10:55:00
5:15 AM,24.8,21.2,86,30.22,10.0,North,13.8,17.3,N/A,,Overcast,10,2013-12-06 11:15:00
5:35 AM,24.8,21.2,86,30.24,10.0,North,12.7,16.1,N/A,,Overcast,360,2013-12-06 11:35:00
5:55 AM,24.8,21.2,86,30.24,9.0,North,11.5,-,N/A,,Overcast,10,2013-12-06 11:55:00
6:15 AM,24.8,21.2,86,30.21,7.0,North,17.3,20.7,N/A,,Overcast,10,2013-12-06 12:15:00
6:35 AM,24.8,21.2,86,30.23,9.0,North,11.5,21.9,N/A,,Overcast,10,2013-12-06 12:35:00
6:55 AM,24.8,21.2,86,30.26,9.0,North,12.7,17.3,N/A,,Overcast,350,2013-12-06 12:55:00
7:15 AM,24.8,21.2,86,30.26,3.0,North,13.8,20.7,N/A,,Overcast,10,2013-12-06 13:15:00
7:35 AM,24.8,21.2,86,30.25,2.5,North,16.1,19.6,N/A,,Overcast,10,2013-12-06 13:35:00
7:55 AM,24.8,21.2,86,30.27,5.0,NNE,13.8,20.7,N/A,,Overcast,20,2013-12-06 13:55:00
8:15 AM,24.8,19.4,80,30.29,3.0,North,8.1,-,N/A,,Overcast,10,2013-12-06 14:15:00
8:35 AM,24.8,19.4,80,30.26,4.0,NNE,13.8,20.7,N/A,,Overcast,20,2013-12-06 14:35:00
8:55 AM,24.8,19.4,80,30.28,6.0,North,11.5,-,N/A,,Overcast,10,2013-12-06 14:55:00
9:15 AM,24.8,21.2,86,30.29,5.0,NNW,9.2,-,N/A,,Overcast,340,2013-12-06 15:15:00
9:35 AM,24.8,19.4,80,30.30,5.0,North,10.4,-,N/A,,Overcast,360,2013-12-06 15:35:00
9:55 AM,24.8,19.4,80,30.28,2.5,North,11.5,17.3,N/A,,Overcast,350,2013-12-06 15:55:00
10:15 AM,24.8,19.4,80,30.26,4.0,North,13.8,23.0,N/A,,Overcast,10,2013-12-06 16:15:00
10:35 AM,24.8,19.4,80,30.28,5.0,North,11.5,16.1,N/A,,Overcast,360,2013-12-06 16:35:00
10:55 AM,24.8,19.4,80,30.27,4.0,North,12.7,19.6,N/A,,Overcast,10,2013-12-06 16:55:00
11:15 AM,24.8,19.4,80,30.26,3.0,North,15.0,21.9,N/A,,Overcast,10,2013-12-06 17:15:00
11:35 AM,23.0,19.4,86,30.26,1.2,North,11.5,17.3,N/A,,Overcast,350,2013-12-06 17:35:00
11:55 AM,23.0,19.4,86,30.27,1.2,North,15.0,19.6,N/A,,Overcast,360,2013-12-06 17:55:00
12:15 PM,23.0,19.4,86,30.25,0.8,North,12.7,17.3,N/A,,Overcast,360,2013-12-06 18:15:00
12:35 PM,23.0,21.2,93,30.25,0.5,North,15.0,19.6,N/A,,Overcast,10,2013-12-06 18:35:00
12:55 PM,24.8,21.2,86,30.24,0.8,NNE,10.4,-,N/A,,Overcast,20,2013-12-06 18:55:00
1:15 PM,24.8,21.2,86,30.26,0.5,North,10.4,-,N/A,,Overcast,360,2013-12-06 19:15:00
1:35 PM,24.8,21.2,86,30.25,0.5,NNE,11.5,-,N/A,,Overcast,20,2013-12-06 19:35:00
1:55 PM,23.0,19.4,86,30.27,0.8,NNW,10.4,-,N/A,,Overcast,340,2013-12-06 19:55:00
2:15 PM,23.0,19.4,86,30.27,0.5,North,8.1,-,N/A,,Overcast,350,2013-12-06 20:15:00
2:35 PM,23.0,19.4,86,30.26,0.8,NNW,8.1,-,N/A,,Overcast,340,2013-12-06 20:35:00
2:55 PM,23.0,19.4,86,30.26,0.5,NNW,9.2,16.1,N/A,,Overcast,340,2013-12-06 20:55:00
3:15 PM,23.0,19.4,86,30.28,1.5,NNW,9.2,-,N/A,,Overcast,340,2013-12-06 21:15:00
3:35 PM,23.0,19.4,86,30.30,1.2,North,9.2,-,N/A,,Overcast,350,2013-12-06 21:35:00
3:55 PM,23.0,19.4,86,30.33,1.0,North,6.9,-,N/A,,Overcast,350,2013-12-06 21:55:00
4:15 PM,23.0,19.4,86,30.32,1.0,NNW,6.9,-,N/A,,Overcast,340,2013-12-06 22:15:00
4:35 PM,23.0,19.4,86,30.31,1.2,North,8.1,-,N/A,,Overcast,350,2013-12-06 22:35:00
4:55 PM,24.8,19.4,80,30.33,5.0,North,8.1,-,N/A,,Overcast,10,2013-12-06 22:55:00
5:15 PM,24.8,19.4,80,30.31,6.0,NNE,11.5,-,N/A,,Overcast,20,2013-12-06 23:15:00
5:35 PM,24.8,19.4,80,30.34,2.5,NNW,11.5,16.1,N/A,,Overcast,340,2013-12-06 23:35:00
5:55 PM,24.8,19.4,80,30.37,4.0,NNW,9.2,-,N/A,,Overcast,340,2013-12-06 23:55:00
6:15 PM,23.0,19.4,86,30.37,7.0,North,9.2,-,N/A,,Overcast,350,2013-12-07 00:15:00
6:35 PM,23.0,19.4,86,30.37,4.0,North,10.4,-,N/A,,Overcast,350,2013-12-07 00:35:00
6:55 PM,23.0,19.4,86,30.38,6.0,NNW,8.1,-,N/A,,Mostly Cloudy,340,2013-12-07 00:55:00
7:15 PM,23.0,19.4,86,30.39,10.0,NNW,8.1,-,N/A,,Mostly Cloudy,340,2013-12-07 01:15:00
7:35 PM,23.0,19.4,86,30.40,10.0,NNW,10.4,-,0.01,,Mostly Cloudy,340,2013-12-07 01:35:00
7:55 PM,23.0,19.4,86,30.41,10.0,NNW,9.2,-,0.01,,Mostly Cloudy,340,2013-12-07 01:55:00
8:15 PM,23.0,19.4,86,30.43,10.0,NNW,5.8,-,N/A,,Overcast,340,2013-12-07 02:15:00
8:35 PM,23.0,19.4,86,30.44,10.0,NNW,6.9,-,N/A,,Overcast,340,2013-12-07 02:35:00
8:55 PM,23.0,17.6,80,30.45,10.0,NNW,9.2,-,N/A,,Overcast,330,2013-12-07 02:55:00
9:15 PM,21.2,17.6,86,30.45,10.0,NNW,10.4,-,N/A,,Overcast,330,2013-12-07 03:15:00
9:35 PM,21.2,17.6,86,30.45,10.0,NNW,8.1,-,N/A,,Overcast,340,2013-12-07 03:35:00
9:55 PM,21.2,15.8,80,30.46,10.0,North,10.4,17.3,0.01,,Overcast,350,2013-12-07 03:55:00
10:15 PM,21.2,15.8,80,30.46,10.0,North,9.2,-,N/A,,Overcast,350,2013-12-07 04:15:00
10:35 PM,21.2,15.8,80,30.46,10.0,North,9.2,18.4,N/A,,Overcast,350,2013-12-07 04:35:00
10:55 PM,21.2,15.8,80,30.47,10.0,NNW,9.2,-,N/A,,Overcast,340,2013-12-07 04:55:00
11:15 PM,21.2,14.0,74,30.48,10.0,NNW,10.4,16.1,0.01,,Overcast,340,2013-12-07 05:15:00
11:35 PM,21.2,14.0,74,30.48,10.0,NNW,9.2,-,0.01,,Overcast,340,2013-12-07 05:35:00
11:55 PM,21.2,12.2,68,30.49,10.0,NNW,9.2,-,0.01,,Overcast,330,2013-12-07 05:55:00